Regional Weather Roundup
Issued by NWS

Home | Current Version | Previous Version | Text Only | Print | Product List | Glossary Off
Versions: 1 2 3 4 5 6 7 8 9 10 11 12 13 14 15 16 17 18 19 20 21 22 23 24 25 26 27 28 29 30 31 32 33 34 35 36 37 38 39 40 41 42 43 44 45 46 47 48 49 50

000
ASUS43 KLSX 210959
RWRMO

WEATHER SUMMARY FOR MISSOURI
NATIONAL WEATHER SERVICE SPRINGFIELD MO
500 AM CDT TUE OCT 21 2014

NOTE: "FAIR" INDICATES FEW OR NO CLOUDS BELOW 12,000 FEET WITH NO
       SIGNIFICANT WEATHER AND/OR OBSTRUCTIONS TO VISIBILITY.
       CURRENT SKY AND/OR WEATHER CONDITIONS ARE NOT AVAILABLE FOR
       CHILLICOTHE AND FARMINGTON.

MOZ001>031-035>038-043-044-053-054-211100-
...NORTHERN AND WESTERN MISSOURI...

CITY           SKY/WX    TMP DP  RH WIND       PRES   REMARKS
KANSAS CTY INT CLEAR     46  44  93 CALM      30.09R
KANSAS C DTWN  CLEAR     47  45  93 CALM      30.09R
LEE`S SUMMIT   CLEAR     48  44  86 SW3       30.10R
ST JOSEPH      PTCLDY    36  34  92 CALM      30.10R
CHILLICOTHE      N/A     42  40  92 CALM      30.10R
KIRKSVILLE     CLEAR     41  40  96 N3        30.09R

$$
MOZ066>068-077>081-088>096-101>105-211100-
...SOUTHWEST MISSOURI...

CITY           SKY/WX    TMP DP  RH WIND       PRES   REMARKS
SPRINGFIELD    CLEAR     47  43  86 CALM      30.08S
JOPLIN         PTCLDY    49  49 100 S3        30.09R FOG

$$
MOZ032>034-039>042-045>050-055>058-069>072-211100-
...CENTRAL MISSOURI...

CITY           SKY/WX    TMP DP  RH WIND       PRES   REMARKS
COLUMBIA       CLEAR     50  43  77 W6        30.07R
JEFFERSON CITY CLEAR     43  41  93 CALM      30.07S
ROLLA          CLEAR     46  41  82 SW5       30.06S
SEDALIA        CLEAR     49  42  77 CALM      30.09R
OSAGE BEACH    CLEAR     43  39  87 CALM      30.08S

$$
MOZ051-052-059>065-211100-
...EAST CENTRAL MISSOURI...

CITY           SKY/WX    TMP DP  RH WIND       PRES   REMARKS
ST LOUIS INTL  CLEAR     49  44  83 CALM      30.05R
SPIRIT OF STL  CLEAR     43  42  97 CALM      30.05R
ST CHARLES     CLEAR     43  41  93 CALM      30.05R

$$
MOZ072>076-082>087-097>100-106>115-211100-
...SOUTH CENTRAL AND SOUTHEAST MISSOURI...

CITY           SKY/WX    TMP DP  RH WIND       PRES   REMARKS
CAPE GIRARDEAU CLEAR     43  43 100 CALM      30.05R FOG
FARMINGTON     CLEAR     43  39  87 CALM      30.07S
WEST PLAINS    CLEAR     44  41  89 CALM      30.09S

$$



USA.gov is the U.S. government's official web portal to all federal, state and local government web resources and services.